Weather History for Davenport, IA

Change the Weather History Date:

Sunday, December 30, 2012

  Actual Average Record
Temperature  
Mean Temperature 22 °F 22 °F  
Max Temperature 36 °F 30 °F 59 °F (2004)
Min Temperature 7 °F 14 °F -9 °F (1976)
Degree Days  
Heating Degree Days 43 43  
Month to date heating degree days 983 1189  
Since 1 July heating degree days 2404 2537  
Cooling Degree Days 0 0  
Month to date cooling degree days 0 0  
Year to date cooling degree days 1114 786  
Moisture  
Dew Point 15 °F    
Average Humidity 76    
Maximum Humidity 96    
Minimum Humidity 56    
Precipitation  
Precipitation 0.00 in 0.03 in 1.04 in (1971)
Month to date precipitation 2.57 1.70  
Year to date precipitation 30.27 36.00  
Snow  
Snow 0.00 in - - ()
Month to date snowfall 5.6  
Since 1 July snowfall 5.6  
Snow Depth 2.00 in    
Sea Level Pressure  
Sea Level Pressure 30.25 in    
Wind  
Wind Speed 10 mph (SSW)    
Max Wind Speed 24 mph    
Max Gust Speed 30 mph    
Visibility 6 miles    
Events      
T = Trace of Precipitation, MM = Missing Value Source: NWS Daily Summary

Daily Weather History Graph

Daily Weather History Graph

Search for Another Location

Airport:

Trip Planner

Search our weather history database for the weather conditions in past years. The results will help you decide how hot, cold, wet, or windy it might be!

Date:

Astronomy

Dec. 30, 2012 Rise Set
Actual Time 7:29 AM CST 4:41 PM CST
Civil Twilight 6:57 AM CST 5:12 PM CST
Nautical Twilight 6:22 AM CST 5:47 PM CST
Astronomical Twilight 5:48 AM CST 6:21 PM CST
Moon 7:14 PM CST (12/30) 8:36 AM CST (12/30)
Length of Visible Light 10h 15m
Length of Day
9h 12m
Waning Gibbous, 95% of the Moon is Illuminated
Dec 30
Waning Gibbous
Jan 4
Last Quarter
Jan 11
New
Jan 18
First Quarter
Jan 26
Full

Hourly Weather History & Observations

Time (CST) Temp. Windchill Dew Point Humidity Pressure Visibility Wind Dir Wind Speed Gust Speed Precip Events Conditions
12:52 AM 9.0 °F - 6.1 °F 88% 30.29 in 4.0 mi Calm Calm - N/A   Clear
1:52 AM 8.1 °F 1.4 °F 5.0 °F 87% 30.30 in 4.0 mi SW 3.5 mph - N/A   Clear
2:52 AM 10.0 °F 1.8 °F 7.0 °F 87% 30.32 in 4.0 mi WSW 4.6 mph - N/A   Clear
3:52 AM 9.0 °F -0.9 °F 6.1 °F 88% 30.34 in 4.0 mi West 5.8 mph - N/A   Clear
4:52 AM 10.0 °F 1.8 °F 6.1 °F 84% 30.33 in 4.0 mi WSW 4.6 mph - N/A   Clear
5:52 AM 10.0 °F 1.8 °F 7.0 °F 87% 30.33 in 4.0 mi SW 4.6 mph - N/A   Clear
6:52 AM 10.0 °F - 7.0 °F 87% 30.35 in 4.0 mi Calm Calm - N/A   Clear
7:34 AM 8.6 °F 0.1 °F 6.8 °F 92% 30.32 in 2.5 mi SW 4.6 mph - N/A   Clear
7:52 AM 10.0 °F 3.6 °F 8.1 °F 92% 30.36 in 2.0 mi SSW 3.5 mph - N/A   Clear
8:52 AM 14.0 °F - 12.0 °F 92% 30.35 in 2.5 mi Calm Calm - N/A   Clear
9:52 AM 18.0 °F 12.7 °F 14.0 °F 84% 30.36 in 2.5 mi SSW 3.5 mph - N/A   Clear
10:17 AM 19.4 °F 12.8 °F 14.0 °F 80% 30.32 in 4.0 mi SW 4.6 mph - N/A   Haze
10:52 AM 21.9 °F 12.5 °F 15.1 °F 75% 30.37 in 5.0 mi SW 8.1 mph - N/A   Haze
11:52 AM 26.1 °F 16.8 °F 17.1 °F 69% 30.32 in 5.0 mi South 9.2 mph - N/A   Haze
12:52 PM 28.9 °F 20.4 °F 19.9 °F 69% 30.28 in 7.0 mi South 9.2 mph - N/A   Clear
1:52 PM 30.9 °F 23.5 °F 21.0 °F 67% 30.23 in 7.0 mi South 8.1 mph - N/A   Clear
2:52 PM 32.0 °F 24.2 °F 21.9 °F 66% 30.22 in 8.0 mi South 9.2 mph - N/A   Clear
3:52 PM 32.0 °F 21.6 °F 23.0 °F 69% 30.22 in 7.0 mi South 15.0 mph - N/A   Clear
4:52 PM 30.9 °F 20.2 °F 23.0 °F 72% 30.19 in 8.0 mi South 15.0 mph - N/A   Clear
5:52 PM 30.9 °F 19.8 °F 23.0 °F 72% 30.17 in 10.0 mi South 16.1 mph - N/A   Clear
6:52 PM 33.1 °F 22.2 °F 23.0 °F 66% 30.14 in 10.0 mi South 17.3 mph 24.2 mph N/A   Clear
7:52 PM 35.1 °F 23.8 °F 23.0 °F 61% 30.12 in 10.0 mi South 20.7 mph 28.8 mph N/A   Clear
8:52 PM 35.1 °F 24.5 °F 23.0 °F 61% 30.11 in 10.0 mi South 18.4 mph 27.6 mph N/A   Clear
9:52 PM 34.0 °F 23.8 °F 23.0 °F 64% 30.08 in 10.0 mi South 16.1 mph 25.3 mph N/A   Clear
10:52 PM 35.1 °F 25.2 °F 21.9 °F 59% 30.07 in 10.0 mi SSW 16.1 mph - N/A   Clear
11:52 PM 36.0 °F 25.3 °F 21.9 °F 57% 30.05 in 10.0 mi SSW 19.6 mph 27.6 mph N/A   Clear